Time,TemperatureF,DewpointF,PressureIn,WindDirection,WindDirectionDegrees,WindSpeedMPH,WindSpeedGustMPH,Humidity,HourlyPrecipIn,Conditions,Clouds,dailyrainin,SolarRadiationWatts/m^2,SoftwareType,DateUTC
2013-02-20 00:02:00,37.0,16.0,-100.00,NW,311,9.0,14.0,41,0.00,,,0.28,0.000000,,2013-02-20 05:02:00,
2013-02-20 00:32:00,35.0,17.0,-100.00,NW,308,9.0,14.0,47,0.00,,,0.28,0.000000,,2013-02-20 05:32:00,
2013-02-20 00:43:00,35.0,17.0,-100.00,NW,308,9.0,14.0,47,0.00,,,0.28,0.000000,,2013-02-20 05:43:00,
2013-02-20 00:52:00,35.0,17.0,-100.00,NW,308,9.0,14.0,47,0.00,,,0.28,0.000000,,2013-02-20 05:52:00,
2013-02-20 01:02:00,35.0,17.0,-100.00,NW,308,9.0,14.0,47,0.00,,,0.28,0.000000,,2013-02-20 06:02:00,
2013-02-20 01:32:00,34.0,16.0,-100.00,NW,304,7.0,16.0,48,0.00,,,0.28,0.000000,,2013-02-20 06:32:00,
2013-02-20 01:42:00,34.0,16.0,-100.00,NW,304,7.0,16.0,48,0.00,,,0.28,0.000000,,2013-02-20 06:42:00,
2013-02-20 01:52:00,34.0,16.0,-100.00,NW,304,7.0,16.0,48,0.00,,,0.28,0.000000,,2013-02-20 06:52:00,
2013-02-20 02:02:00,34.0,16.0,-100.00,NW,304,7.0,16.0,48,0.00,,,0.28,0.000000,,2013-02-20 07:02:00,
2013-02-20 04:32:00,32.0,16.0,-100.00,NW,318,5.0,10.0,51,-99.99,,,0.05,0.000000,,2013-02-20 09:32:00,
2013-02-20 04:42:00,32.0,16.0,-100.00,NW,318,5.0,10.0,51,-99.99,,,0.05,0.000000,,2013-02-20 09:42:00,
2013-02-20 04:52:00,32.0,16.0,-100.00,NW,318,5.0,10.0,51,-99.99,,,0.05,0.000000,,2013-02-20 09:52:00,
2013-02-20 05:01:00,32.0,16.0,-100.00,NW,318,5.0,10.0,51,-99.99,,,0.05,0.000000,,2013-02-20 10:01:00,
2013-02-20 05:32:00,32.0,17.0,-100.00,NW,321,5.0,10.0,53,0.00,,,0.01,0.000000,,2013-02-20 10:32:00,
2013-02-20 05:42:00,32.0,17.0,-100.00,NW,321,5.0,10.0,53,0.00,,,0.01,0.000000,,2013-02-20 10:42:00,
2013-02-20 05:52:00,32.0,17.0,-100.00,NW,321,5.0,10.0,53,0.00,,,0.01,0.000000,,2013-02-20 10:52:00,
2013-02-20 06:02:00,32.0,17.0,-100.00,NW,321,5.0,10.0,53,0.00,,,0.01,0.000000,,2013-02-20 11:02:00,
2013-02-20 06:32:00,31.0,17.0,-100.00,NNW,339,7.0,11.0,55,-99.99,,,0.00,0.000000,,2013-02-20 11:32:00,
2013-02-20 06:42:00,31.0,17.0,-100.00,NNW,339,7.0,11.0,55,-99.99,,,0.00,0.000000,,2013-02-20 11:42:00,
2013-02-20 06:52:00,31.0,17.0,-100.00,NNW,339,7.0,11.0,55,-99.99,,,0.00,0.000000,,2013-02-20 11:52:00,
2013-02-20 07:02:00,31.0,17.0,-100.00,NNW,339,7.0,11.0,55,-99.99,,,0.00,0.000000,,2013-02-20 12:02:00,
2013-02-20 07:32:00,29.0,17.0,-100.00,NNW,338,6.0,12.0,60,0.00,,,0.00,0.000000,,2013-02-20 12:32:00,
2013-02-20 07:42:00,29.0,17.0,-100.00,NNW,338,6.0,12.0,60,0.00,,,0.00,0.000000,,2013-02-20 12:42:00,
2013-02-20 07:53:00,29.0,17.0,-100.00,NNW,338,6.0,12.0,60,0.00,,,0.00,0.000000,,2013-02-20 12:53:00,
2013-02-20 08:01:00,29.0,17.0,-100.00,NNW,338,6.0,12.0,60,0.00,,,0.00,0.000000,,2013-02-20 13:01:00,
2013-02-20 09:32:00,32.0,20.0,-100.00,NNW,344,6.0,11.0,60,-99.99,,,0.00,151.000000,,2013-02-20 14:32:00,
2013-02-20 09:42:00,32.0,20.0,-100.00,NNW,344,6.0,11.0,60,-99.99,,,0.00,151.000000,,2013-02-20 14:42:00,
2013-02-20 09:52:00,32.0,20.0,-100.00,NNW,344,6.0,11.0,60,-99.99,,,0.00,151.000000,,2013-02-20 14:52:00,
2013-02-20 10:02:00,32.0,20.0,-100.00,NNW,344,6.0,11.0,60,-99.99,,,0.00,151.000000,,2013-02-20 15:02:00,
2013-02-20 10:32:00,35.0,17.0,-100.00,NNW,337,5.0,13.0,48,0.00,,,0.00,246.000000,,2013-02-20 15:32:00,
2013-02-20 10:42:00,35.0,17.0,-100.00,NNW,337,5.0,13.0,48,0.00,,,0.00,246.000000,,2013-02-20 15:42:00,
2013-02-20 10:52:00,35.0,17.0,-100.00,NNW,337,5.0,13.0,48,0.00,,,0.00,246.000000,,2013-02-20 15:52:00,
2013-02-20 11:01:00,35.0,17.0,-100.00,NNW,337,5.0,13.0,48,0.00,,,0.00,246.000000,,2013-02-20 16:01:00,
2013-02-20 11:32:00,37.0,14.0,-100.00,North,351,7.0,15.0,38,0.00,,,-99.99,256.000000,,2013-02-20 16:32:00,
2013-02-20 11:42:00,37.0,14.0,-100.00,North,351,7.0,15.0,38,0.00,,,-99.99,256.000000,,2013-02-20 16:42:00,
2013-02-20 11:52:00,37.0,14.0,-100.00,North,351,7.0,15.0,38,0.00,,,-99.99,256.000000,,2013-02-20 16:52:00,
2013-02-20 12:01:00,37.0,14.0,-100.00,North,351,7.0,15.0,38,0.00,,,-99.99,256.000000,,2013-02-20 17:01:00,
2013-02-20 12:32:00,40.0,14.0,-100.00,NW,318,7.0,12.0,34,0.00,,,0.00,280.000000,,2013-02-20 17:32:00,
2013-02-20 12:42:00,40.0,14.0,-100.00,NW,318,7.0,12.0,34,0.00,,,0.00,280.000000,,2013-02-20 17:42:00,
2013-02-20 12:52:00,40.0,14.0,-100.00,NW,318,7.0,12.0,34,0.00,,,0.00,280.000000,,2013-02-20 17:52:00,
2013-02-20 13:02:00,40.0,14.0,-100.00,NW,318,7.0,12.0,34,0.00,,,0.00,280.000000,,2013-02-20 18:02:00,
2013-02-20 13:32:00,41.0,13.0,-100.00,NW,323,6.0,15.0,31,0.00,,,0.00,291.000000,,2013-02-20 18:32:00,
2013-02-20 13:42:00,41.0,13.0,-100.00,NW,323,6.0,15.0,31,0.00,,,0.00,291.000000,,2013-02-20 18:42:00,
2013-02-20 13:52:00,41.0,13.0,-100.00,NW,323,6.0,15.0,31,0.00,,,0.00,291.000000,,2013-02-20 18:52:00,
2013-02-20 14:01:00,41.0,13.0,-100.00,NW,323,6.0,15.0,31,0.00,,,0.00,291.000000,,2013-02-20 19:01:00,
2013-02-20 14:32:00,42.0,13.0,-100.00,NW,314,5.0,12.0,30,0.00,,,0.00,235.000000,,2013-02-20 19:32:00,
2013-02-20 14:42:00,42.0,13.0,-100.00,NW,314,5.0,12.0,30,0.00,,,0.00,235.000000,,2013-02-20 19:42:00,
2013-02-20 14:52:00,42.0,13.0,-100.00,NW,314,5.0,12.0,30,0.00,,,0.00,235.000000,,2013-02-20 19:52:00,
2013-02-20 15:01:00,42.0,13.0,-100.00,NW,314,5.0,12.0,30,0.00,,,0.00,235.000000,,2013-02-20 20:01:00,
2013-02-20 15:31:00,41.0,15.0,-100.00,NW,326,4.0,12.0,34,0.00,,,0.00,91.000000,,2013-02-20 20:31:00,
2013-02-20 15:41:00,41.0,15.0,-100.00,NW,326,4.0,12.0,34,0.00,,,0.00,91.000000,,2013-02-20 20:41:00,
2013-02-20 15:52:00,41.0,15.0,-100.00,NW,326,4.0,12.0,34,0.00,,,0.00,91.000000,,2013-02-20 20:52:00,
2013-02-20 16:01:00,41.0,15.0,-100.00,NW,326,4.0,12.0,34,0.00,,,0.00,91.000000,,2013-02-20 21:01:00,
2013-02-20 16:32:00,39.0,12.0,-100.00,WNW,295,5.0,9.0,33,0.00,,,0.00,56.000000,,2013-02-20 21:32:00,
2013-02-20 16:42:00,39.0,12.0,-100.00,WNW,295,5.0,9.0,33,0.00,,,0.00,56.000000,,2013-02-20 21:42:00,
2013-02-20 16:52:00,39.0,12.0,-100.00,WNW,295,5.0,9.0,33,0.00,,,0.00,56.000000,,2013-02-20 21:52:00,
2013-02-20 17:02:00,39.0,12.0,-100.00,WNW,295,5.0,9.0,33,0.00,,,0.00,56.000000,,2013-02-20 22:02:00,
2013-02-20 17:32:00,40.0,12.0,-100.00,WNW,299,4.0,8.0,31,0.00,,,0.00,54.000000,,2013-02-20 22:32:00,
2013-02-20 17:43:00,40.0,12.0,-100.00,WNW,299,4.0,8.0,31,0.00,,,0.00,54.000000,,2013-02-20 22:43:00,
2013-02-20 17:52:00,40.0,12.0,-100.00,WNW,299,4.0,8.0,31,0.00,,,0.00,54.000000,,2013-02-20 22:52:00,
2013-02-20 18:01:00,40.0,12.0,-100.00,WNW,299,4.0,8.0,31,0.00,,,0.00,54.000000,,2013-02-20 23:01:00,
2013-02-20 18:32:00,38.0,11.0,-100.00,NNW,345,4.0,6.0,32,0.00,,,0.00,29.000000,,2013-02-20 23:32:00,
2013-02-20 18:43:00,38.0,11.0,-100.00,NNW,345,4.0,6.0,32,0.00,,,0.00,29.000000,,2013-02-20 23:43:00,
2013-02-20 18:53:00,38.0,11.0,-100.00,NNW,345,4.0,6.0,32,0.00,,,0.00,29.000000,,2013-02-20 23:53:00,
2013-02-20 19:03:00,38.0,11.0,-100.00,NNW,345,4.0,6.0,32,0.00,,,0.00,29.000000,,2013-02-21 00:03:00,
2013-02-20 19:32:00,37.0,12.0,-100.00,NNE,24,4.0,8.0,35,0.00,,,0.00,3.000000,,2013-02-21 00:32:00,
2013-02-20 19:42:00,37.0,12.0,-100.00,NNE,24,4.0,8.0,35,0.00,,,0.00,3.000000,,2013-02-21 00:42:00,
2013-02-20 19:52:00,37.0,12.0,-100.00,NNE,24,4.0,8.0,35,0.00,,,0.00,3.000000,,2013-02-21 00:52:00,
2013-02-20 20:01:00,37.0,12.0,-100.00,NNE,24,4.0,8.0,35,0.00,,,0.00,3.000000,,2013-02-21 01:01:00,
2013-02-20 20:32:00,36.0,12.0,-100.00,NNE,12,6.0,10.0,36,0.00,,,0.00,0.000000,,2013-02-21 01:32:00,
2013-02-20 20:42:00,36.0,12.0,-100.00,NNE,12,6.0,10.0,36,0.00,,,0.00,0.000000,,2013-02-21 01:42:00,
2013-02-20 20:52:00,36.0,12.0,-100.00,NNE,12,6.0,10.0,36,0.00,,,0.00,0.000000,,2013-02-21 01:52:00,
2013-02-20 21:02:00,36.0,12.0,-100.00,NNE,12,6.0,10.0,36,0.00,,,0.00,0.000000,,2013-02-21 02:02:00,
2013-02-20 21:32:00,34.0,11.0,-100.00,NNW,339,6.0,12.0,38,0.00,,,0.00,0.000000,,2013-02-21 02:32:00,
2013-02-20 21:42:00,34.0,11.0,-100.00,NNW,339,6.0,12.0,38,0.00,,,0.00,0.000000,,2013-02-21 02:42:00,
2013-02-20 21:52:00,34.0,11.0,-100.00,NNW,339,6.0,12.0,38,0.00,,,0.00,0.000000,,2013-02-21 02:52:00,
2013-02-20 22:02:00,34.0,11.0,-100.00,NNW,339,6.0,12.0,38,0.00,,,0.00,0.000000,,2013-02-21 03:02:00,
2013-02-20 22:32:00,33.0,13.0,-100.00,NNW,348,8.0,13.0,43,0.00,,,0.00,0.000000,,2013-02-21 03:32:00,
2013-02-20 22:42:00,33.0,13.0,-100.00,NNW,348,8.0,13.0,43,0.00,,,0.00,0.000000,,2013-02-21 03:42:00,
2013-02-20 22:52:00,33.0,13.0,-100.00,NNW,348,8.0,13.0,43,0.00,,,0.00,0.000000,,2013-02-21 03:52:00,
2013-02-20 23:01:00,33.0,13.0,-100.00,NNW,348,8.0,13.0,43,0.00,,,0.00,0.000000,,2013-02-21 04:01:00,
2013-02-20 23:32:00,32.0,15.0,-100.00,North,351,9.0,16.0,48,0.00,,,0.00,0.000000,,2013-02-21 04:32:00,
2013-02-20 23:42:00,32.0,15.0,-100.00,North,351,9.0,16.0,48,0.00,,,0.00,0.000000,,2013-02-21 04:42:00,
2013-02-20 23:52:00,32.0,15.0,-100.00,North,351,9.0,16.0,48,0.00,,,0.00,0.000000,,2013-02-21 04:52:00,